Sugar Grove, IL

11:39 AM CDT on August 25, 2016 (GMT -0500)
Aurora Municipal

Weather History for KARR - November, 2013

Change the Weather History Date:

Sunday, November 17, 2013

  Actual Average Record
Temperature  
Mean Temperature 55 °F 38 °F  
Max Temperature 68 °F 47 °F 68 °F (2004)
Min Temperature 41 °F 28 °F 9 °F (2014)
Degree Days  
Heating Degree Days 10 28  
Month to date heating degree days 404 401  
Since 1 July heating degree days 977 1008  
Cooling Degree Days 0 0  
Month to date cooling degree days 0 0  
Year to date cooling degree days 745 655  
Growing Degree Days 5 (Base 50)    
Moisture  
Dew Point 53 °F    
Average Humidity 85    
Maximum Humidity 93    
Minimum Humidity 76    
Precipitation  
Precipitation 0.85 in 0.10 in 1.19 in (2015)
Month to date precipitation 2.05 1.92  
Year to date precipitation 32.58 33.68  
Sea Level Pressure  
Sea Level Pressure 29.42 in    
Wind  
Wind Speed 21 mph (SSW)    
Max Wind Speed 41 mph    
Max Gust Speed 53 mph    
Visibility 8 miles    
Events Rain , Thunderstorm    
T = Trace of Precipitation, MM = Missing Value Source: NWS Daily Summary

Daily Weather History Graph

Daily Weather History Graph

Search for Another Location

Airport or City:

Trip Planner

Search our weather history database for the weather conditions in past years. The results will help you decide how hot, cold, wet, or windy it might be!

Date:

Astronomy

Nov. 17, 2013 Rise Set
Actual Time 6:45 AM CST 4:31 PM CST
Civil Twilight 6:15 AM CST 5:01 PM CST
Nautical Twilight 5:42 AM CST 5:35 PM CST
Astronomical Twilight 5:09 AM CST 6:08 PM CST
Moon 4:48 PM CST (11/17) 6:39 AM CST (11/17)
Length of Visible Light 10h 45m
Length of Day
9h 45m
Full, 100% of the Moon is Illuminated
Nov 17
Full
Nov 25
Last Quarter
Dec 2
New
Dec 9
First Quarter
Dec 17
Full

Hourly Weather History & Observations

Time (CST) Temp. Windchill Dew Point Humidity Pressure Visibility Wind Dir Wind Speed Gust Speed Precip Events Conditions
12:52 AM 59.0 °F - 55.9 °F 90% 29.57 in 9.0 mi SSW 12.7 mph - N/A   Overcast
1:40 AM 59.0 °F - 55.4 °F 88% 29.55 in 9.0 mi South 12.7 mph 18.4 mph N/A   Mostly Cloudy
1:52 AM 59.0 °F - 55.9 °F 90% 29.56 in 9.0 mi South 13.8 mph 20.7 mph N/A   Mostly Cloudy
2:21 AM 59.0 °F - 55.4 °F 88% 29.56 in 8.0 mi SSW 12.7 mph - N/A   Overcast
2:52 AM 59.0 °F - 55.9 °F 90% 29.55 in 7.0 mi SSW 9.2 mph - 0.02 in Rain Light Rain
3:03 AM 59.0 °F - 55.4 °F 88% 29.53 in 7.0 mi South 10.4 mph - 0.00 in Rain Light Rain
3:18 AM 57.2 °F - 55.4 °F 94% 29.52 in 7.0 mi South 11.5 mph - 0.00 in   Mostly Cloudy
3:52 AM 57.9 °F - 55.9 °F 93% 29.51 in 7.0 mi South 11.5 mph - 0.00 in   Partly Cloudy
4:22 AM 57.2 °F - 55.4 °F 94% 29.49 in 7.0 mi SSE 12.7 mph - N/A   Overcast
4:31 AM 59.0 °F - 57.2 °F 94% 29.49 in 7.0 mi SSE 15.0 mph - N/A   Overcast
4:52 AM 59.0 °F - 57.0 °F 93% 29.49 in 6.0 mi SSE 13.8 mph - N/A   Overcast
5:52 AM 59.0 °F - 57.9 °F 96% 29.44 in 5.0 mi SSE 13.8 mph - 0.01 in Rain Light Rain
6:52 AM 62.1 °F - 60.1 °F 93% 29.42 in 8.0 mi South 13.8 mph - 0.02 in   Overcast
7:35 AM 64.4 °F - 60.8 °F 88% 29.42 in 8.0 mi South 19.6 mph 31.1 mph N/A   Overcast
7:52 AM 64.0 °F - 61.0 °F 90% 29.40 in 9.0 mi South 18.4 mph 24.2 mph N/A   Overcast
8:52 AM 64.9 °F - 61.0 °F 87% 29.37 in 10.0 mi South 16.1 mph 26.5 mph N/A   Overcast
9:22 AM 66.2 °F - 60.8 °F 83% 29.37 in 10.0 mi South 20.7 mph 25.3 mph N/A   Overcast
9:31 AM 64.4 °F - 60.8 °F 88% 29.37 in 10.0 mi South 13.8 mph 25.3 mph N/A   Overcast
9:52 AM 66.9 °F - 62.1 °F 84% 29.34 in 10.0 mi SSW 19.6 mph 35.7 mph N/A   Overcast
9:59 AM 66.2 °F - 62.6 °F 88% 29.35 in 10.0 mi South 21.9 mph 34.5 mph N/A   Mostly Cloudy
10:12 AM 68.0 °F - 62.6 °F 83% 29.33 in 10.0 mi South 24.2 mph 34.5 mph N/A   Mostly Cloudy
10:22 AM 68.0 °F - 62.6 °F 83% 29.32 in 8.0 mi South 20.7 mph 38.0 mph 0.00 in Rain Light Rain
10:49 AM 68.0 °F - 62.6 °F 83% 29.28 in 10.0 mi South 20.7 mph 27.6 mph 0.01 in Thunderstorm Overcast
10:52 AM 68.0 °F - 62.1 °F 81% 29.27 in 10.0 mi SSW 20.7 mph 28.8 mph 0.01 in Rain , Thunderstorm Light Rain
11:12 AM 66.2 °F - 62.6 °F 88% 29.26 in 1.5 mi SSW 25.3 mph 43.7 mph 0.13 in Rain , Thunderstorm Heavy Thunderstorms and Rain
11:23 AM 55.4 °F - 51.8 °F 88% 29.28 in 0.8 mi SSW 25.3 mph 49.5 mph 0.40 in Rain , Thunderstorm Heavy Thunderstorms and Rain
11:30 AM 57.2 °F - 53.6 °F 88% 29.26 in 1.5 mi SSW 28.8 mph 38.0 mph 0.46 in Rain , Thunderstorm Heavy Thunderstorms and Rain
11:52 AM 57.0 °F - 54.0 °F 89% 29.26 in 1.8 mi SSW 20.7 mph 36.8 mph 0.67 in Rain , Thunderstorm Heavy Thunderstorms and Rain
12:00 PM 57.2 °F - 53.6 °F 88% 29.24 in 3.0 mi SSW 20.7 mph 31.1 mph 0.01 in Rain , Thunderstorm Light Thunderstorms and Rain
12:52 PM 57.0 °F - 52.0 °F 83% 29.20 in 10.0 mi SSW 20.7 mph 32.2 mph 0.04 in   Scattered Clouds
1:02 PM 57.2 °F - 51.8 °F 82% 29.22 in 8.0 mi SW 23.0 mph 32.2 mph 0.01 in Thunderstorm Scattered Clouds
1:11 PM 53.6 °F - 48.2 °F 82% 29.26 in 2.5 mi West 28.8 mph 51.8 mph 0.04 in Rain , Thunderstorm Light Rain
1:27 PM 51.8 °F - 48.2 °F 88% 29.22 in 7.0 mi WSW 10.4 mph 26.5 mph 0.06 in Rain , Thunderstorm Light Rain
1:44 PM 53.6 °F - 48.2 °F 82% 29.22 in 10.0 mi SSW 10.4 mph - 0.06 in   Mostly Cloudy
1:52 PM 55.0 °F - 50.0 °F 83% 29.21 in 10.0 mi SSW 11.5 mph - 0.06 in   Scattered Clouds
2:27 PM 57.2 °F - 51.8 °F 82% 29.24 in 10.0 mi SW 20.7 mph 32.2 mph N/A   Mostly Cloudy
2:52 PM 54.0 °F - 48.9 °F 83% 29.26 in 10.0 mi WSW 33.4 mph 49.5 mph N/A   Overcast
2:59 PM 53.6 °F - 48.2 °F 82% 29.27 in 10.0 mi West 33.4 mph 52.9 mph N/A   Overcast
3:52 PM 48.9 °F - 44.1 °F 83% 29.37 in 10.0 mi West 32.2 mph 43.7 mph 0.02 in Rain Light Rain
4:52 PM 48.0 °F - 42.1 °F 80% 29.46 in 10.0 mi West 33.4 mph 47.2 mph 0.00 in   Overcast
5:52 PM 46.9 °F - 41.0 °F 80% 29.52 in 10.0 mi West 27.6 mph 36.8 mph N/A   Overcast
6:52 PM 46.9 °F - 41.0 °F 80% 29.57 in 10.0 mi West 26.5 mph 38.0 mph N/A   Overcast
7:35 PM 46.4 °F 38.3 °F 39.2 °F 76% 29.61 in 10.0 mi West 23.0 mph 34.5 mph N/A   Overcast
7:52 PM 46.0 °F 37.4 °F 39.0 °F 76% 29.64 in 10.0 mi West 25.3 mph 33.4 mph N/A   Overcast
8:52 PM 44.1 °F 35.4 °F 37.0 °F 76% 29.67 in 10.0 mi West 21.9 mph 28.8 mph N/A   Scattered Clouds
9:52 PM 42.1 °F 33.1 °F 37.0 °F 82% 29.70 in 10.0 mi West 20.7 mph 27.6 mph N/A   Clear
10:52 PM 42.1 °F 33.6 °F 36.0 °F 79% 29.73 in 10.0 mi West 18.4 mph 25.3 mph N/A   Clear
11:52 PM 41.0 °F 32.2 °F 35.1 °F 79% 29.77 in 10.0 mi West 18.4 mph - N/A   Clear